Weather History for Kansas City International, MO

Change the Weather History Date:

Saturday, November 17, 2012

  Actual Average Record
Temperature  
Mean Temperature 49 °F 43 °F  
Max Temperature 61 °F 52 °F 75 °F (1999)
Min Temperature 36 °F 33 °F 7 °F (1959)
Degree Days  
Heating Degree Days 16 22  
Month to date heating degree days 274 309  
Since 1 July heating degree days 676 669  
Cooling Degree Days 0 0  
Month to date cooling degree days 5 0  
Year to date cooling degree days 1839 1358  
Moisture  
Dew Point 31 °F    
Average Humidity 55    
Maximum Humidity 82    
Minimum Humidity 27    
Precipitation  
Precipitation 0.00 in 0.06 in 1.14 in (1958)
Month to date precipitation 1.36 1.29  
Year to date precipitation 20.94 36.47  
Snow  
Snow 0.00 in 0.10 in 3.00 in (1892)
Month to date snowfall 0.0 0.4  
Since 1 July snowfall 0.0 0.6  
Since 1 September snowfall 0.0 0.6  
Snow Depth 0.00 in    
Sea Level Pressure  
Sea Level Pressure 30.33 in    
Wind  
Wind Speed 11 mph (SSE)    
Max Wind Speed 22 mph    
Max Gust Speed 26 mph    
Visibility 10 miles    
Events      
T = Trace of Precipitation, MM = Missing Value Source: NWS Daily Summary

Daily Weather History Graph

Daily Weather History Graph

Search for Another Location

Airport:

Trip Planner

Search our weather history database for the weather conditions in past years. The results will help you decide how hot, cold, wet, or windy it might be!

Date:

Astronomy

Nov. 17, 2012 Rise Set
Actual Time 7:05 AM CST 5:02 PM CST
Civil Twilight 6:36 AM CST 5:31 PM CST
Nautical Twilight 6:03 AM CST 6:03 PM CST
Astronomical Twilight 5:32 AM CST 6:35 PM CST
Moon 10:50 AM CST (11/17) 9:13 PM CST (11/17)
Length of Visible Light 10h 54m
Length of Day
9h 57m
Waxing Crescent, 20% of the Moon is Illuminated
Nov 17
Waxing Crescent
Nov 20
First Quarter
Nov 28
Full
Dec 6
Last Quarter
Dec 13
New

Hourly Weather History & Observations

Time (CST) Temp. Windchill Dew Point Humidity Pressure Visibility Wind Dir Wind Speed Gust Speed Precip Events Conditions
12:53 AM 41.0 °F 34.7 °F 33.1 °F 73% 30.36 in 10.0 mi SSE 10.4 mph - N/A   Clear
1:53 AM 39.9 °F 35.1 °F 33.1 °F 77% 30.36 in 10.0 mi SSE 6.9 mph - N/A   Clear
2:53 AM 37.9 °F 32.1 °F 32.0 °F 79% 30.37 in 10.0 mi SSE 8.1 mph - N/A   Clear
3:53 AM 39.0 °F 32.8 °F 32.0 °F 76% 30.36 in 10.0 mi SSE 9.2 mph - N/A   Clear
4:53 AM 39.0 °F 32.3 °F 30.9 °F 73% 30.36 in 10.0 mi SSE 10.4 mph - N/A   Clear
5:53 AM 39.0 °F 32.3 °F 30.9 °F 73% 30.37 in 10.0 mi SSE 10.4 mph - N/A   Clear
6:53 AM 39.0 °F 31.8 °F 30.9 °F 73% 30.37 in 10.0 mi SSE 11.5 mph - N/A   Mostly Cloudy
7:53 AM 42.1 °F 35.7 °F 32.0 °F 67% 30.38 in 10.0 mi SSE 11.5 mph - N/A   Mostly Cloudy
8:53 AM 46.0 °F 40.6 °F 33.1 °F 61% 30.39 in 10.0 mi South 11.5 mph - N/A   Mostly Cloudy
9:53 AM 52.0 °F - 34.0 °F 50% 30.38 in 10.0 mi South 10.4 mph - N/A   Mostly Cloudy
10:53 AM 55.9 °F - 33.1 °F 42% 30.38 in 10.0 mi South 12.7 mph - N/A   Mostly Cloudy
11:53 AM 57.9 °F - 33.1 °F 39% 30.35 in 10.0 mi South 17.3 mph 23.0 mph N/A   Mostly Cloudy
12:53 PM 61.0 °F - 26.1 °F 26% 30.32 in 10.0 mi South 18.4 mph - N/A   Scattered Clouds
1:53 PM 60.1 °F - 30.9 °F 33% 30.30 in 10.0 mi South 16.1 mph 24.2 mph N/A   Scattered Clouds
2:53 PM 60.1 °F - 32.0 °F 35% 30.29 in 10.0 mi South 12.7 mph - N/A   Scattered Clouds
3:53 PM 57.9 °F - 30.9 °F 36% 30.28 in 10.0 mi South 13.8 mph - N/A   Scattered Clouds
4:53 PM 54.0 °F - 28.0 °F 37% 30.27 in 10.0 mi SSE 12.7 mph - N/A   Scattered Clouds
5:53 PM 50.0 °F - 28.9 °F 44% 30.28 in 10.0 mi SSE 8.1 mph - N/A   Partly Cloudy
6:53 PM 45.0 °F 40.6 °F 28.9 °F 53% 30.29 in 10.0 mi SSE 8.1 mph - N/A   Clear
7:53 PM 43.0 °F 38.2 °F 30.0 °F 60% 30.30 in 10.0 mi SE 8.1 mph - N/A   Clear
8:53 PM 45.0 °F 40.1 °F 30.9 °F 58% 30.29 in 10.0 mi SSE 9.2 mph - N/A   Clear
9:53 PM 44.1 °F 39.0 °F 30.9 °F 60% 30.28 in 10.0 mi SSE 9.2 mph - N/A   Clear
10:53 PM 46.0 °F 41.0 °F 30.9 °F 56% 30.26 in 10.0 mi SSE 10.4 mph - N/A   Clear
11:53 PM 44.1 °F 38.6 °F 30.0 °F 58% 30.27 in 10.0 mi SSE 10.4 mph - N/A   Clear